Terminal Aerodrome Forecast
Issued by NWS Charleston, SC

Home | Current Version | Previous Version | Text Only | Print | Product List | Glossary On
Versions: 1 2 3 4 5 6 7 8 9 10 11 12 13 14 15 16 17 18
745
FTUS42 KCHS 060524
TAFCHS
TAF
KCHS 060524Z 0606/0706 31008KT P6SM SCT050
     FM061600 31009G15KT P6SM BKN050
     FM070000 31005KT P6SM SCT060=

USA.gov is the U.S. government's official web portal to all federal, state and local government web resources and services.